Weather History for Lumberton, NC

Change the Weather History Date:

Saturday, March 16, 2013

  Actual Average Record
Temperature  
Mean Temperature 66 °F 54 °F  
Max Temperature 79 °F 66 °F 84 °F (2002)
Min Temperature 53 °F 42 °F 28 °F (1999)
Degree Days  
Heating Degree Days 0 11  
Month to date heating degree days 279 210  
Since 1 July heating degree days 2353 2440  
Cooling Degree Days 1 0  
Month to date cooling degree days 1 0  
Year to date cooling degree days 5 3  
Growing Degree Days 16 (Base 50)    
Moisture  
Dew Point 43 °F    
Average Humidity 43    
Maximum Humidity 59    
Minimum Humidity 27    
Precipitation  
Precipitation 0.00 in 0.10 in 0.53 in (2005)
Month to date precipitation 0.47 1.73  
Year to date precipitation 6.04 7.60  
Sea Level Pressure  
Sea Level Pressure 29.84 in    
Wind  
Wind Speed 14 mph (SW)    
Max Wind Speed 29 mph    
Max Gust Speed 36 mph    
Visibility 10 miles    
Events      
T = Trace of Precipitation, MM = Missing Value Source: NWS Daily Summary

Daily Weather History Graph

Daily Weather History Graph

Search for Another Location

Airport:

Trip Planner

Search our weather history database for the weather conditions in past years. The results will help you decide how hot, cold, wet, or windy it might be!

Date:

Astronomy

Mar. 16, 2013 Rise Set
Actual Time 7:25 AM EDT 7:24 PM EDT
Civil Twilight 7:00 AM EDT 7:50 PM EDT
Nautical Twilight 6:30 AM EDT 8:19 PM EDT
Astronomical Twilight 6:01 AM EDT 8:48 PM EDT
Moon 10:06 AM EDT (3/16) No Moon Set
Length of Visible Light 12h 50m
Length of Day
11h 59m
Waxing Crescent, 23% of the Moon is Illuminated
Mar 16
Waxing Crescent
Mar 19
First Quarter
Mar 27
Full
Apr 3
Last Quarter
Apr 10
New

Hourly Weather History & Observations

Time (EDT) Temp. Dew Point Humidity Pressure Visibility Wind Dir Wind Speed Gust Speed Precip Events Conditions
12:54 AM 53.1 °F 39.0 °F 59% 29.94 in 10.0 mi SSW 9.2 mph - N/A   Clear
1:54 AM 53.1 °F 39.9 °F 61% 29.93 in 10.0 mi SSW 8.1 mph - N/A   Clear
2:54 AM 55.9 °F 39.9 °F 55% 29.91 in 10.0 mi SW 12.7 mph - N/A   Clear
3:54 AM 55.9 °F 39.9 °F 55% 29.89 in 10.0 mi SW 10.4 mph - N/A   Clear
4:54 AM 57.0 °F 41.0 °F 55% 29.88 in 10.0 mi SW 10.4 mph - N/A   Clear
6:54 AM 57.9 °F 41.0 °F 53% 29.89 in 10.0 mi SW 11.5 mph - N/A   Clear
7:54 AM 57.9 °F 42.1 °F 56% 29.89 in 10.0 mi SW 9.2 mph - N/A   Partly Cloudy
8:54 AM 59.0 °F 43.0 °F 55% 29.91 in 10.0 mi WSW 13.8 mph - N/A   Scattered Clouds
9:54 AM 61.0 °F 45.0 °F 56% 29.90 in 10.0 mi WSW 13.8 mph - N/A   Clear
10:54 AM 66.0 °F 46.0 °F 48% 29.88 in 10.0 mi WSW 18.4 mph 24.2 mph N/A   Partly Cloudy
11:54 AM 70.0 °F 46.0 °F 42% 29.86 in 10.0 mi WSW 18.4 mph 25.3 mph N/A   Clear
12:54 PM 73.0 °F 46.9 °F 39% 29.83 in 10.0 mi WSW 18.4 mph 25.3 mph N/A   Clear
1:54 PM 75.9 °F 46.9 °F 36% 29.80 in 10.0 mi SW 18.4 mph 26.5 mph N/A   Clear
2:54 PM 78.1 °F 48.0 °F 35% 29.77 in 10.0 mi SW 18.4 mph - N/A   Clear
3:54 PM 79.0 °F 46.0 °F 31% 29.74 in 10.0 mi WSW 23.0 mph 31.1 mph N/A   Clear
4:54 PM 79.0 °F 43.0 °F 28% 29.74 in 10.0 mi WSW 23.0 mph 32.2 mph N/A   Clear
5:54 PM 78.1 °F 42.1 °F 28% 29.73 in 10.0 mi WSW 23.0 mph 27.6 mph N/A   Clear
6:54 PM 75.0 °F 39.0 °F 27% 29.74 in 10.0 mi WSW 17.3 mph 28.8 mph N/A   Clear
7:54 PM 68.0 °F 39.9 °F 36% 29.77 in 10.0 mi WSW 9.2 mph - N/A   Clear
8:54 PM 68.0 °F 39.9 °F 36% 29.80 in 10.0 mi SW 6.9 mph - N/A   Clear
9:54 PM 68.0 °F 41.0 °F 37% 29.83 in 10.0 mi SW 9.2 mph - N/A   Clear
10:54 PM 64.0 °F 43.0 °F 46% 29.86 in 10.0 mi WSW 8.1 mph - N/A   Clear
11:54 PM 62.1 °F 43.0 °F 50% 29.87 in 10.0 mi WSW 6.9 mph - N/A   Clear